STARLINK-36596

Last updated on Thu Mar 05 2026 00:02:08 GMT+0000 (Coordinated Universal Time)

1 67670U 26022Y 26063.55223033 .00293164 00000+0 18875-2 0 9993 2 67670 97.2830 97.3266 0000981 36.7043 323.4289 15.75338893 4749
UTC large
Height (km)
Speed (km/s)
/
Latitude / Longitude
Inclination (degrees)
Orbital Period (minutes)
Azimuth
Elevation
Range (km)
Doppler Factor

Next 0 passes for location: London (51.5072 / 0.1276)

Sorry there are no passes over London.